TAF and METAR

Could not understand the following METAR

EGDR 290150Z AUTO 09023KT 9999 // NCD 13/09 Q1025
No TAF available for Culdrose (Navy)
Culdrose (Navy) in United Kingdom of Great Britain & Northern Ireland at 82m

Latest 5 airports